Flag for Canada Weather past 2 weeks in Prince Rupert, British Columbia, Canada

Now
41 °F

Passing clouds.


Feels Like: 36 °F
Forecast: 31 / 46 °F
Wind: 7 mph from East

Location: Prince Rupert

Current Time: Mar 2, 2015 at 9:18:22 PM

Latest Report: Mar 2, 2015 at 9:00 PM


Visibility: 9 mi

Pressure: 30.27 "Hg

Humidity: 87%

Dew point: 37 °F

Location of Prince RupertLocation

Historic Weather in Prince Rupert — Graph

°F

Prince Rupert temperature yesterday

Maximum temperature yesterday: 45 °F (at 2:00 PM)
Minimum temperature yesterday: 37 °F (at 12:00 AM)
Average temperature yesterday: 40 °F

Past Weeks' High & Low Weather Summary

 TemperatureHumidityPressure
High52 °F (Feb 16, 2:00 PM)100% (Feb 15, 8:00 PM)30.51 "Hg (Feb 15, 8:00 PM)
Low32 °F (Feb 28, 12:00 AM)32% (Feb 27, 3:00 PM)29.90 "Hg (Feb 18, 7:00 AM)
Average41 °F88%30.27 "Hg
* Reported Feb 15 8:00 PM — Mar 2 8:00 PM, Prince Rupert, Weather by CustomWeather, © 2015

Note: Actual official high and low records may vary slightly from our data, if they occured in-between our weather recording intervals... More about our weather records

Advertising

Prince Rupert weather history for previous 24 hours

 ConditionsComfort  
Time TempWeatherWind HumidityBarometerVisibility
8:00 PM
Mon, Mar 2
41 °FPassing clouds.6 mph87%30.26 "Hg9 mi
7:00 PM39 °FPassing clouds.2 mph87%30.26 "Hg9 mi
6:00 PM41 °FSunny.No wind87%30.26 "Hg9 mi
5:00 PM45 °FSunny.2 mph76%30.27 "Hg9 mi
4:00 PM45 °FSunny.5 mph76%30.26 "Hg9 mi
3:00 PM45 °FSunny.2 mph76%30.27 "Hg9 mi
2:00 PM45 °FSunny.5 mph76%30.27 "Hg9 mi
1:00 PM43 °FSunny.6 mph81%30.28 "Hg9 mi
12:00 PM43 °FSunny.5 mph81%30.28 "Hg9 mi
11:00 AM41 °FSunny.No wind87%30.27 "Hg9 mi
10:00 AM37 °FSunny.3 mph93%30.28 "Hg9 mi
9:00 AM34 °FSunny.2 mph100%30.28 "Hg9 mi
8:00 AM32 °FSunny.6 mph100%30.27 "Hg9 mi
7:00 AM32 °FClear.6 mph100%30.28 "Hg9 mi
6:00 AM32 °FPassing clouds.3 mph100%30.28 "Hg9 mi
5:59 AM32 °FPassing clouds.5 mph100%30.28 "Hg9 mi
5:00 AM34 °FClear.7 mph100%30.28 "Hg9 mi
4:00 AM34 °FClear.8 mph100%30.29 "Hg8 mi
3:00 AM34 °FClear.7 mph100%30.29 "Hg9 mi
2:00 AM32 °FClear.2 mph100%30.29 "Hg9 mi
1:00 AM34 °FClear.No wind100%30.28 "Hg9 mi
12:00 AM36 °FClear.8 mph100%30.27 "Hg9 mi
11:00 PM
Sun, Mar 1
39 °FClear.7 mph87%30.27 "Hg9 mi
10:00 PM39 °FClear.7 mph93%30.26 "Hg9 mi
9:00 PM39 °FClear.10 mph87%30.26 "Hg9 mi
Weather by CustomWeather, © 2015

See weather overviewHow to use our weather pages